User: anonymous   Login
Location: Newark
(52.4480°N, 1.4938°W)
Time: 05:16:30
(UTC+00:00)
Language:

HuskySat-1 - Orbit

View from above orbital plane
View from above orbital plane
View from above satellite
View from above satellite

Ground track
Ground track

The orbit data is extracted from the following two-line orbital elements,

1 45117U 19071G   20330.62678669  .00006244  00000-0  19440-3 0  9991
2 45117  51.6416 303.8445 0010006 279.2803  80.7048 15.34574293 45861
Epoch (UTC): 25 November 2020 15:02:34
Eccentricity: 0.0010006
inclination: 51.6416°
perigee height: 455 km
apogee height: 469 km
right ascension of ascending node: 303.8445°
argument of perigee: 279.2803°
revolutions per day: 15.34574293
mean anomaly at epoch: 80.7048°
orbit number at epoch: 4586

The dashed part of the orbit path shows where the satellite is in the earth's shadow,  

DLR